Overview Statistics Trail Chart Weather Telemetry Raw packets
 

This is the latest recevied weather packets stored in our database for station/object KD5FHA. If no packets are shown the sender has not sent any weather packets the latest 10 day(s).

<< 105 106 107 108 109 110 111 >>
Time Temp. Humidity Pressure Rain* Wind** Luminosity Snow
1787816246 28.89° C 63% 1015 hPa 0 mm - 0 W/m² -
1787815940 28.33° C 66% 1015 hPa 0 mm - 0 W/m² -
1787815638 28.89° C 65% 1015 hPa 0 mm - 0 W/m² -
1787815332 28.89° C 64% 1015 hPa 0 mm - 0 W/m² -
1787815028 28.89° C 63% 1014.8 hPa 0 mm - 0 W/m² -
1787814728 28.89° C 63% 1014.9 hPa 0 mm - 0 W/m² -
1787814422 29.44° C 63% 1014.9 hPa 0 mm - 0 W/m² -
1787814118 28.89° C 63% 1014.7 hPa 0 mm - 0 W/m² -
1787813813 29.44° C 62% 1015 hPa 0 mm - 0 W/m² -
1787813508 29.44° C 62% 1015 hPa 0 mm - 0 W/m² -
1787813204 29.44° C 62% 1014.9 hPa 0 mm - 0 W/m² -
1787812899 29.44° C 62% 1014.9 hPa 0 mm - 0 W/m² -
1787812600 29.44° C 62% 1015.1 hPa 0 mm - 0 W/m² -
1787812295 28.89° C 64% 1015 hPa 0 mm - 0 W/m² -
1787811991 28.89° C 64% 1014.9 hPa 0 mm - 0 W/m² -
1787811690 28.89° C 64% 1015 hPa 0 mm - 0 W/m² -
1787811386 28.89° C 63% 1014.9 hPa 0 mm - 0 W/m² -
1787811085 29.44° C 63% 1014.9 hPa 0 mm - 0 W/m² -
1787810781 29.44° C 62% 1014.9 hPa 0 mm - 0 W/m² -
1787810476 29.44° C 62% 1014.7 hPa 0 mm - 0 W/m² -
1787810175 30° C 61% 1014.7 hPa 0 mm - 0 W/m² -
1787809871 30° C 61% 1014.8 hPa 0 mm - 0 W/m² -
1787809570 30° C 60% 1014.7 hPa 0 mm - 0 W/m² -
1787809261 30° C 60% 1014.8 hPa 0 mm - 0 W/m² -
1787808957 30° C 61% 1014.8 hPa 0 mm - 0 W/m² -

* Rain latest hour (hover to see other rain measurements)
** Current wind speed in m/s (hover to see current wind gust speed)